Location: Estes Park
(40.3770°N, 105.5210°W)
Time: 21:35:07
(UTC-06:00)

Vanguard 3 - All Passes

Search period start: 26 May 2018 00:00
Search period end: 05 June 2018 00:00
Orbit: 507 x 3264 km, 33.4° (Epoch: 26 May)

Date Brightness Start Highest point End Pass type
(mag) Time Alt. Az. Time Alt. Az. Time Alt. Az.
26 May - 07:14:12 10° SSE 07:20:53 13° SE 07:28:05 10° ESE daylight
26 May - 09:18:06 10° SSW 09:34:00 39° SE 09:50:50 10° E daylight
26 May - 11:30:14 10° WSW 11:49:30 62° SSE 12:06:10 10° E daylight
26 May - 13:46:06 10° W 14:05:42 68° S 14:19:13 10° ESE daylight
26 May - 16:03:54 10° W 16:19:59 46° SSW 16:30:03 10° SE daylight
26 May - 18:24:32 10° W 18:31:08 16° SW 18:36:18 10° SSW daylight
27 May - 08:05:36 10° S 08:18:29 27° SE 08:33:11 10° E daylight
27 May - 10:15:06 10° SW 10:32:52 54° SSE 10:50:38 10° E daylight
27 May - 12:29:18 10° WSW 12:49:09 69° S 13:04:52 10° E daylight
27 May - 14:46:12 10° W 15:04:48 59° SSW 15:17:00 10° SE daylight
27 May - 17:04:53 10° W 17:17:35 30° SW 17:26:07 10° SSE daylight
28 May - 06:55:43 10° SSE 07:03:42 15° SE 07:12:45 10° E daylight
28 May - 09:01:06 10° SSW 09:16:40 42° SE 09:34:14 10° E daylight
28 May - 11:13:19 10° WSW 11:32:18 65° SSE 11:49:50 10° E daylight
28 May - 13:28:58 10° W 13:48:44 67° S 14:03:11 10° ESE daylight
28 May - 15:46:37 10° W 16:03:13 44° SSW 16:14:02 10° SE daylight
28 May - 18:08:08 10° W 18:14:27 14° SW 18:19:34 10° SSW daylight
29 May - 07:48:28 10° S 08:01:12 30° SE 08:16:35 10° E daylight
29 May - 09:58:17 10° SW 10:15:33 57° SSE 10:34:04 10° E daylight
29 May - 12:12:21 10° WSW 12:32:02 70° S 12:48:38 10° E daylight
29 May - 14:28:59 10° W 14:47:53 58° SSW 15:00:57 10° SE daylight
29 May - 16:47:48 10° W 17:00:47 28° SW 17:09:51 10° S daylight
30 May - 06:37:57 10° SSE 06:46:33 18° SE 06:56:45 10° E daylight
30 May - 08:44:20 10° SW 08:59:21 45° SSE 09:17:28 10° E daylight
30 May - 10:56:32 10° WSW 11:15:04 67° S 11:33:22 10° E daylight
30 May - 13:11:55 10° W 13:31:41 66° SSW 13:47:01 10° ESE daylight
30 May - 15:29:24 10° W 15:46:18 42° SW 15:57:53 10° SSE daylight
30 May - 17:51:59 10° WSW 17:57:39 13° SW 18:02:27 10° SSW daylight
31 May - 07:31:37 10° SSW 07:43:58 32° SE 07:59:48 10° E daylight
31 May - 09:41:39 10° SW 09:58:17 59° SSE 10:17:21 10° E daylight
31 May - 11:55:31 10° W 12:14:52 70° S 12:32:17 10° ESE daylight
31 May - 14:11:50 10° W 14:30:51 55° SSW 14:44:47 10° SE daylight
31 May - 16:30:49 10° W 16:43:52 26° SW 16:53:25 10° S daylight
01 Jun - 06:20:41 10° S 06:29:26 20° SE 06:40:22 10° E daylight
01 Jun - 08:27:46 10° SW 08:42:07 48° SSE 09:00:33 10° E daylight
01 Jun - 10:39:55 10° WSW 10:57:50 68° S 11:16:46 10° E daylight
01 Jun - 12:54:58 10° W 13:14:32 65° SSW 13:30:44 10° ESE daylight
01 Jun - 15:12:16 10° W 15:29:15 40° SW 15:41:34 10° SSE daylight
01 Jun - 17:36:21 10° WSW 17:40:45 12° SW 17:44:42 10° SW daylight
02 Jun - 07:15:00 10° SSW 07:26:48 35° SE 07:42:50 10° E daylight
02 Jun - 09:25:11 10° WSW 09:41:04 62° SSE 10:00:30 10° E daylight
02 Jun - 11:38:50 10° W 11:57:39 70° S 12:15:48 10° ESE daylight
02 Jun - 13:54:48 10° W 14:13:42 53° SSW 14:28:27 10° SE daylight
02 Jun - 16:13:57 10° W 16:26:49 24° SW 16:36:44 10° S daylight
03 Jun - 06:03:46 10° S 06:12:24 21° SE 06:23:43 10° E daylight
03 Jun - 08:11:22 10° SW 08:24:57 51° SSE 08:43:31 10° E daylight
03 Jun - 10:23:27 10° WSW 10:40:37 69° S 11:00:04 10° E daylight
03 Jun - 12:38:09 10° W 12:57:20 63° SSW 13:14:17 10° ESE daylight
03 Jun - 14:55:14 10° W 15:12:05 37° SW 15:25:04 10° SSE daylight
03 Jun - 17:22:39 10° WSW 17:23:47 10° WSW 17:24:53 10° SW daylight
04 Jun - 06:58:35 10° SSW 07:09:44 37° SE 07:25:45 10° E daylight
04 Jun - 09:08:53 10° WSW 09:23:54 64° SSE 09:43:32 10° E daylight
04 Jun - 11:22:15 10° W 11:40:26 69° S 11:59:11 10° ESE daylight
04 Jun - 13:37:53 10° W 13:56:29 50° SSW 14:11:56 10° SE daylight
04 Jun - 15:57:14 10° W 16:09:42 22° SW 16:19:47 10° S daylight
